Previsão horária em Allanche

Hoje, 18 Janeiro, Segunda-feira

Tempo Temperatura Precipitação Vento Pressão Humidade
00:00 -3°C° 0 mm 1 m/s 673 mmHg 96%
01:00 -3°C° 0 mm 1 m/s 673 mmHg 96%
02:00 -4°C° 0 mm 1 m/s 672 mmHg 96%
03:00 -4°C° 0 mm 1 m/s 672 mmHg 95%
04:00 -4°C° 0 mm 1 m/s 672 mmHg 95%
05:00 -4°C° 0 mm 1 m/s 672 mmHg 95%
06:00 -6°C° 0 mm 1 m/s 672 mmHg 94%
07:00 -4°C° 0 mm 1 m/s 672 mmHg 93%
08:00 -4°C° 0 mm 0 m/s 673 mmHg 91%
09:00 -3°C° 0 mm 0 m/s 673 mmHg 90%
10:00 -2°C° 0 mm 0 m/s 673 mmHg 86%
11:00 -1°C° 0 mm 0 m/s 673 mmHg 83%
12:00 0°C° 0 mm 0 m/s 673 mmHg 80%
13:00 0°C° 0 mm 0 m/s 673 mmHg 81%
14:00 0°C° 0 mm 0 m/s 673 mmHg 82%
15:00 0°C° 0 mm 0 m/s 672 mmHg 83%
16:00 -2°C° 0 mm 0 m/s 672 mmHg 85%
17:00 -3°C° 0 mm 0 m/s 671 mmHg 88%
18:00 -5°C° 0 mm 0 m/s 671 mmHg 90%
19:00 -4°C° 0 mm 1 m/s 671 mmHg 87%
20:00 -4°C° 0 mm 1 m/s 671 mmHg 83%
21:00 -4°C° 0 mm 1 m/s 671 mmHg 79%
22:00 -4°C° 0 mm 1 m/s 671 mmHg 76%
23:00 -4°C° 0 mm 1 m/s 671 mmHg 73%

Amanhã, 19 Janeiro, Terça-feira

Tempo Temperatura Precipitação Vento Pressão Humidade
00:00 -4°C° 0 mm 1 m/s 670 mmHg 69%
01:00 -4°C° 0 mm 1 m/s 670 mmHg 67%
02:00 -4°C° 0 mm 1 m/s 670 mmHg 65%
03:00 -4°C° 0 mm 1 m/s 669 mmHg 63%
04:00 -4°C° 0 mm 1 m/s 669 mmHg 61%
05:00 -4°C° 0 mm 1 m/s 669 mmHg 59%
06:00 -3°C° 0 mm 1 m/s 669 mmHg 57%
07:00 -2°C° 0 mm 1 m/s 669 mmHg 57%
08:00 -1°C° 0 mm 1 m/s 669 mmHg 57%
09:00 0°C° 0 mm 1 m/s 669 mmHg 57%
10:00 +1°C° 0 mm 1 m/s 669 mmHg 59%
11:00 +3°C° 0 mm 1 m/s 669 mmHg 61%
12:00 +5°C° 0 mm 1 m/s 669 mmHg 63%
13:00 +4°C° 0 mm 1 m/s 668 mmHg 65%
14:00 +4°C° 0 mm 1 m/s 668 mmHg 66%
15:00 +3°C° 0 mm 2 m/s 667 mmHg 68%
16:00 +1°C° 0 mm 2 m/s 667 mmHg 68%
17:00 -2°C° 0 mm 2 m/s 666 mmHg 68%
18:00 -3°C° 0 mm 2 m/s 666 mmHg 67%
19:00 -3°C° 0 mm 2 m/s 665 mmHg 68%
20:00 -3°C° 0 mm 2 m/s 665 mmHg 69%
21:00 -3°C° 0 mm 2 m/s 665 mmHg 69%
22:00 -3°C° 0 mm 2 m/s 665 mmHg 70%
23:00 -3°C° 0 mm 2 m/s 664 mmHg 70%

Depois de amanhã, 20 Janeiro, Quarta-feira

Tempo Temperatura Precipitação Vento Pressão Humidade
00:00 -3°C° 0 mm 2 m/s 664 mmHg 70%
01:00 -3°C° 0 mm 2 m/s 663 mmHg 71%
02:00 -3°C° 0 mm 2 m/s 663 mmHg 72%
03:00 -3°C° 0 mm 2 m/s 662 mmHg 73%
04:00 -4°C° 0 mm 3 m/s 662 mmHg 79%
05:00 -2°C° 0 mm 3 m/s 661 mmHg 84%
06:00 -2°C° 0 mm 3 m/s 661 mmHg 90%
07:00 -1°C° 0 mm 3 m/s 661 mmHg 89%
08:00 -1°C° 0 mm 4 m/s 660 mmHg 89%
09:00 0°C° 0 mm 4 m/s 660 mmHg 88%
10:00 +1°C° 0 mm 5 m/s 660 mmHg 87%
11:00 +2°C° 0 mm 5 m/s 660 mmHg 86%
12:00 +3°C° 0 mm 6 m/s 659 mmHg 85%
13:00 +2°C° 0 mm 6 m/s 659 mmHg 85%
14:00 +2°C° 0 mm 6 m/s 658 mmHg 86%
15:00 +2°C° 0 mm 5 m/s 657 mmHg 86%
16:00 +1°C° 0 mm 5 m/s 657 mmHg 88%
17:00 +1°C° 0 mm 4 m/s 657 mmHg 89%
18:00 0°C° 0 mm 4 m/s 657 mmHg 91%
19:00 0°C° 0 mm 4 m/s 657 mmHg 91%
20:00 0°C° 0 mm 4 m/s 656 mmHg 91%
21:00 0°C° 0 mm 4 m/s 656 mmHg 91%
22:00 +1°C° 0.1 mm 3 m/s 656 mmHg 92%
23:00 +1°C° 0.1 mm 3 m/s 656 mmHg 93%

21 Janeiro, Quinta-feira

Tempo Temperatura Precipitação Vento Pressão Humidade
00:00 +1°C° 0.1 mm 3 m/s 656 mmHg 94%
01:00 +1°C° 0.5 mm 3 m/s 657 mmHg 94%
02:00 +1°C° 0.5 mm 3 m/s 657 mmHg 95%
03:00 0°C° 0.5 mm 4 m/s 657 mmHg 96%
04:00 0°C° 0.6 mm 4 m/s 657 mmHg 96%
05:00 0°C° 0.6 mm 4 m/s 657 mmHg 96%
06:00 0°C° 0.6 mm 4 m/s 657 mmHg 96%
07:00 0°C° 0.9 mm 4 m/s 658 mmHg 96%
08:00 +1°C° 0.9 mm 3 m/s 658 mmHg 96%
09:00 +1°C° 0.9 mm 3 m/s 658 mmHg 96%
10:00 +1°C° 0.7 mm 3 m/s 658 mmHg 96%
11:00 +2°C° 0.7 mm 3 m/s 658 mmHg 96%
12:00 +2°C° 0.7 mm 3 m/s 659 mmHg 96%
13:00 +1°C° 0.3 mm 4 m/s 658 mmHg 95%
14:00 +1°C° 0.3 mm 4 m/s 657 mmHg 94%
15:00 +1°C° 0.3 mm 5 m/s 656 mmHg 93%
16:00 +1°C° 1.3 mm 5 m/s 656 mmHg 94%
17:00 +1°C° 1.3 mm 5 m/s 656 mmHg 94%
18:00 +1°C° 1.3 mm 6 m/s 656 mmHg 95%
19:00 +1°C° 1.8 mm 5 m/s 656 mmHg 95%
20:00 +1°C° 1.8 mm 5 m/s 656 mmHg 95%
21:00 +1°C° 1.8 mm 5 m/s 656 mmHg 96%
22:00 0°C° 2.6 mm 4 m/s 655 mmHg 96%
23:00 0°C° 2.6 mm 4 m/s 655 mmHg 97%

22 Janeiro, Sexta-feira

Tempo Temperatura Precipitação Vento Pressão Humidade
00:00 0°C° 2.6 mm 3 m/s 655 mmHg 98%
01:00 -1°C° 1 mm 4 m/s 655 mmHg 96%
02:00 0°C° 1 mm 5 m/s 655 mmHg 95%
03:00 -1°C° 1 mm 6 m/s 655 mmHg 94%
04:00 -1°C° 2 mm 6 m/s 655 mmHg 95%
05:00 -2°C° 2 mm 6 m/s 655 mmHg 96%
06:00 -2°C° 2 mm 6 m/s 655 mmHg 97%
07:00 -1°C° 1 mm 5 m/s 655 mmHg 96%
08:00 -1°C° 1 mm 4 m/s 656 mmHg 96%
09:00 0°C° 1 mm 3 m/s 656 mmHg 95%
10:00 0°C° 0.1 mm 3 m/s 656 mmHg 93%
11:00 +1°C° 0.1 mm 3 m/s 656 mmHg 92%
12:00 +1°C° 0.1 mm 3 m/s 656 mmHg 90%
13:00 +1°C° 0.1 mm 3 m/s 656 mmHg 91%
14:00 +1°C° 0.1 mm 3 m/s 655 mmHg 92%
15:00 +1°C° 0.1 mm 3 m/s 655 mmHg 93%
16:00 +1°C° 0.8 mm 3 m/s 655 mmHg 94%
17:00 -1°C° 0.8 mm 4 m/s 655 mmHg 95%
18:00 -1°C° 0.8 mm 5 m/s 654 mmHg 96%
19:00 -1°C° 0.3 mm 5 m/s 654 mmHg 96%
20:00 -1°C° 0.3 mm 5 m/s 654 mmHg 96%
21:00 -1°C° 0.3 mm 5 m/s 654 mmHg 96%
22:00 -3°C° 1.1 mm 6 m/s 654 mmHg 96%
23:00 -3°C° 1.1 mm 7 m/s 654 mmHg 96%

23 Janeiro, Sábado

Tempo Temperatura Precipitação Vento Pressão Humidade
00:00 -5°C° 1.1 mm 8 m/s 655 mmHg 96%
01:00 -4°C° 0.5 mm 7 m/s 655 mmHg 95%
02:00 -6°C° 0.5 mm 7 m/s 655 mmHg 94%
03:00 -6°C° 0.5 mm 7 m/s 655 mmHg 93%
04:00 -6°C° 0.6 mm 7 m/s 656 mmHg 93%
05:00 -6°C° 0.6 mm 7 m/s 656 mmHg 94%
06:00 -4°C° 0.6 mm 7 m/s 656 mmHg 95%
07:00 -4°C° 0.3 mm 6 m/s 657 mmHg 93%
08:00 -4°C° 0.3 mm 6 m/s 658 mmHg 92%
09:00 -4°C° 0.3 mm 6 m/s 659 mmHg 90%
10:00 -4°C° 0 mm 5 m/s 660 mmHg 87%
11:00 -2°C° 0 mm 5 m/s 660 mmHg 85%
12:00 -2°C° 0 mm 5 m/s 661 mmHg 82%
13:00 -2°C° 0.1 mm 4 m/s 661 mmHg 84%
14:00 -1°C° 0.1 mm 3 m/s 661 mmHg 85%
15:00 -1°C° 0.1 mm 3 m/s 661 mmHg 87%
16:00 -2°C° 0.1 mm 2 m/s 661 mmHg 89%
17:00 -2°C° 0.1 mm 2 m/s 661 mmHg 92%
18:00 -3°C° 0.1 mm 2 m/s 661 mmHg 95%
19:00 -3°C° 0.4 mm 2 m/s 661 mmHg 95%
20:00 -3°C° 0.4 mm 2 m/s 661 mmHg 96%
21:00 -2°C° 0.4 mm 2 m/s 661 mmHg 96%
22:00 -2°C° 0.2 mm 2 m/s 660 mmHg 96%
23:00 -2°C° 0.2 mm 2 m/s 660 mmHg 97%
Mostrar mais

Necessitamos do seu Consentimento

A Meteoprog e os seus Fornecedores de Serviços podem armazenar e aceder a dados pessoais como cookies, identificadores do dispositivo ou outras tecnologias semelhantes existentes no seu dispositivo e processar estes dados para personalizar conteúdos e anúncios, assim como funcionalidades nas redes sociais e análise de tráfego.

  • Armazenar e/ou aceder a informações no seu dispositivo

    Os cookies, identificadores do dispositivo ou outras informações podem ser armazenados ou acedidos no seu dispositivo, para os fins acima indicados.

  • Anúncios e conteúdos personalizados, medição de anúncios e conteúdos, dados sobre o público-alvo e desenvolvimento de produtos

    Os anúncios e os conteúdos podem ser personalizados com base num perfil. Podem ser adicionados dados adicionais para uma maior personalização dos anúncios e dos conteúdos. A eficácia dos anúncios e dos conteúdos pode ser medida. Podem ser obtidas informações sobre o público que visualizou os anúncios e os conteúdos. Estes dados podem ser usados para desenvolver ou melhorar sistemas, softwares ou a experiência do utilizador.

Ao clicar em "Eu concordo”, permitirá o uso de cookies, identificadores do dispositivo e web beacons mencionados ou outras tecnologias semelhantes. As configurações do navegador do seu dispositivo podem ser alteradas.

Para certos fins, podem ser invocados interesses legítimos ao invés de consentimento. Pode ler mais informação sobre este assunto na nossa Política de Privacidade e Cookies.